Regional Weather Roundup
Issued by NWS

Home | Current Version | Previous Version | Graphics & Text | Print | Product List | Glossary On
Versions: 1 2 3 4 5 6 7 8 9 10 11 12 13 14 15 16 17 18 19 20 21 22 23 24 25 26 27 28 29 30 31 32 33 34 35 36 37 38 39 40 41 42 43 44 45 46 47 48 49
000
ASUS45 KSLC 290010
RWRUT

UTAH REGIONAL WEATHER ROUNDUP
NATIONAL WEATHER SERVICE SALT LAKE CITY UT
600 PM MDT SAT MAR 28 2015

UTZ001>011-023>025-290100-

NORTHERN UTAH

CITY           SKY/WX    TMP DP  RH WIND       PRES   REMARKS
BRIGHAM CITY   MOSUNNY   66  28  23 NW12      30.13S
HILL AFB       MOSUNNY   66  32  28 N10       30.14R
LOGAN          SUNNY     64  31  28 NW15G21   30.12S
OGDEN          MOSUNNY   66  34  30 N16       30.12S
PROVO AIRPORT  MOSUNNY   70  28  21 NW15      30.09S
SALT LAKE CITY MOSUNNY   70  27  20 NW17      30.11S
VERNAL         SUNNY     73  18  12 W24G32    30.01R
WENDOVER       PTSUNNY   72  23  16 NW21G26   30.13R
HEBER CITY     MOSUNNY   70  23  17 W13       30.11S
WEST JORDAN    SUNNY     68  32  26 NW16      30.13R

$$

UTZ012>022-026-027-290100-

SOUTHERN/CENTRAL UTAH

CITY           SKY/WX    TMP DP  RH WIND       PRES   REMARKS
BLANDING       SUNNY     72  19  13 SW17      30.18F
BRYCE CANYON   SUNNY     66  18  15 NW16      30.23S
CEDAR CITY     SUNNY     73  18  12 SW15      30.12F
DELTA          SUNNY     76  20  12 N7        30.08S
HANKSVILLE     SUNNY     79  25  13 SE9       30.03S
MILFORD        MOSUNNY   80  21  11 MISG      30.05F
MOAB/CYNLANDS  SUNNY     79  18  10 W6        30.00F
PRICE          SUNNY     73  20  13 W17G26    30.10S
ST GEORGE      PTCLDY    84  27  12 W15G21    30.03S

$$

REGIONAL REPORTS     COLORADO/ARIZONA

CITY           SKY/WX    TMP DP  RH WIND       PRES   REMARKS
CRAIG, CO      MOSUNNY   67  22  18 W23G30    30.03F
GRAND JUNCTION SUNNY     76  21  12 W16G23    30.02F
RIFLE          MOSUNNY   73  22  14 SW21      30.04S
MONTROSE       SUNNY     74  17  11 NW9       30.09S
CORTEZ         SUNNY     72  14  11 W10       30.14F
PAGE, AZ       SUNNY     82  18   9 W10G17    30.04F
GRAND CANYON   SUNNY     71  14  11 W12G22    30.22F
KINGMAN        SUNNY     82  20  10 SW15      30.07F
FLAGSTAFF      SUNNY     69  12  11 SW17G24   30.26F

$$

REGIONAL REPORTS    NEVADA/IDAHO/WYOMING

CITY           SKY/WX    TMP DP  RH WIND       PRES   REMARKS
LAS VEGAS, NV  SUNNY     90   8   4 S16G22    29.92F
ELY            SUNNY     71   5   7 W16G22    30.19S
ELKO           SUNNY     65  16  15 NW15      30.23R
POCATELLO, ID  SUNNY     57  20  23 SW22G33   30.16R
BURLEY         LGT RAIN  56  22  26 W26G36    30.19F
EVANSTON, WY   MOSUNNY   57  19  22 W25G32    30.18S
ROCK SPRINGS   MOSUNNY   62   8  12 W32G41    30.09R
KEMMERER       MOSUNNY   55  21  26 W26G36    30.18R

$$



USA.gov is the U.S. government's official web portal to all federal, state and local government web resources and services.